Wind_Speed
27 27 27 24 26 31 32 35 32 29 28 25 20 19 21 22 26 27 25 27 27 26 29 31 32 29 25 24 27 33 34 35 36 39 42 43 38 25 22 17 9 14 20 23 27 29 24 20 17
26 28 28 29 29 28 25 29 28 30 29 27 24 24 24 25 26 27 28 29 30 31 31 32 29 23 22 25 25 29 34 35 37 41 41 36 27 22 18 16 4 13 17 21 25 30 27 20 15
26 25 28 31 30 29 25 25 27 26 26 27 28 28 28 28 29 29 29 29 30 30 29 24 21 21 25 24 25 30 33 37 37 38 29 26 22 18 17 9 2 9 14 16 25 28 26 21 15
26 25 25 29 32 33 31 30 30 30 30 30 30 31 33 32 31 28 28 27 25 24 21 24 27 26 26 28 30 34 31 34 27 22 23 20 19 17 12 5 7 9 12 14 24 26 24 25 20
26 26 26 28 30 29 28 27 27 25 28 29 30 31 27 26 23 21 19 19 19 20 21 21 23 23 25 28 29 30 25 21 19 20 18 19 16 11 6 6 8 9 11 13 21 22 22 22 22
27 28 28 27 28 25 26 26 25 26 26 25 23 23 19 19 16 15 14 16 18 21 25 26 25 24 24 25 24 19 14 17 16 15 14 13 13 13 9 7 8 10 13 15 19 20 19 20 17
27 28 28 29 27 26 24 25 23 23 23 21 18 15 17 13 15 19 16 17 16 18 19 21 22 23 25 17 12 13 13 12 12 10 9 12 13 15 16 13 12 13 14 15 16 17 16 16 14
26 27 25 24 24 24 22 23 21 19 18 17 18 16 15 14 14 8 11 11 15 18 21 22 21 21 10 9 10 11 10 10 10 9 10 8 12 16 17 16 16 17 20 22 24 24 21 16 12
19 20 22 22 22 21 19 19 18 17 16 17 17 19 19 18 17 15 13 15 21 22 20 13 7 7 8 8 8 6 8 9 9 10 11 11 12 16 19 20 21 25 25 27 29 31 31 27 19
13 15 19 18 18 19 19 18 17 16 16 17 17 20 17 15 15 15 15 16 10 8 5 6 7 9 5 3 7 11 15 15 14 14 13 13 15 18 18 20 21 22 22 24 29 31 30 30 26
16 19 14 16 16 15 15 15 15 15 13 13 10 9 10 9 7 6 3 2 4 6 7 8 5 3 7 12 14 15 16 16 16 17 16 15 16 16 20 19 20 20 21 25 27 27 32 27 30
6 8 6 9 10 11 12 10 11 11 8 7 9 9 8 5 6 4 4 6 8 7 5 4 6 13 17 18 16 16 15 15 15 15 13 15 16 16 19 20 21 22 23 22 24 25 33 30 28
3 1 5 7 9 11 11 12 13 11 11 12 9 3 2 4 6 5 4 6 4 4 8 14 17 18 16 15 15 14 15 17 17 18 16 14 17 18 19 20 21 21 23 21 25 24 24 30 26
8 1 6 8 11 14 15 14 12 12 13 14 5 0 5 5 4 4 3 5 10 14 13 17 16 16 16 14 14 15 17 17 16 17 16 14 16 16 17 20 21 21 22 23 24 27 29 28 28
12 6 1 7 14 16 14 13 11 10 8 6 2 3 0 6 7 9 14 16 14 13 14 15 16 15 14 15 14 13 12 14 14 14 17 19 16 20 19 20 22 21 22 24 25 29 28 25 26
6 11 13 5 3 16 19 16 13 9 8 11 10 6 10 13 15 17 15 13 13 13 12 13 14 14 14 13 13 12 11 12 14 17 18 18 21 21 21 21 22 23 24 24 28 28 24 24 28
2 2 6 11 8 5 11 15 12 14 16 15 14 17 20 20 16 14 13 13 13 13 12 13 13 11 10 10 11 11 13 14 16 17 18 19 19 21 21 22 23 24 26 27 27 28 24 25 27
5 4 1 6 7 6 11 16 19 19 19 21 21 20 16 14 14 14 14 14 14 13 11 11 10 9 8 8 9 10 13 15 16 18 19 20 21 21 21 24 23 24 24 24 25 26 22 26 24
12 8 6 4 8 7 8 13 14 16 20 22 21 16 14 14 13 14 13 12 11 11 10 8 7 5 5 6 8 10 13 16 19 21 21 21 22 22 22 23 24 25 25 26 26 28 22 23 27
20 16 12 10 8 10 10 9 8 12 18 19 18 19 17 14 12 10 9 9 8 8 6 5 4 2 3 7 11 12 14 17 20 22 22 23 23 22 22 24 26 30 31 32 29 29 23 23 27
27 25 21 17 13 11 13 12 11 11 16 18 19 17 16 15 11 10 9 8 7 7 6 5 5 3 6 10 13 14 16 18 21 21 22 23 23 24 26 29 29 33 34 34 31 25 22 20 24
35 32 28 24 18 17 16 15 14 14 16 17 18 16 15 15 11 10 10 11 10 9 8 8 6 7 10 13 16 17 20 21 21 22 23 24 25 27 29 31 32 35 33 31 29 26 26 27 29
43 42 36 30 27 24 19 18 18 19 20 21 20 18 14 17 15 14 14 13 13 12 11 10 9 11 14 16 18 21 22 23 24 24 24 25 28 31 33 34 35 37 33 26 25 29 32 32 32
52 49 40 36 34 29 23 23 22 22 21 23 25 24 22 20 20 19 18 17 16 15 14 14 15 16 18 19 20 22 24 25 25 24 27 30 32 35 38 41 40 39 37 29 31 34 32 35 36
58 51 46 39 36 34 31 30 27 27 24 25 27 27 26 25 23 21 22 20 18 18 18 19 20 21 22 23 24 25 26 26 26 27 30 33 35 39 42 42 44 39 33 31 37 38 39 40 43
65 60 51 49 45 43 41 35 37 35 31 27 27 29 27 28 26 26 25 23 23 22 23 24 25 26 27 27 27 28 28 27 27 29 32 35 37 41 43 42 41 38 36 41 40 43 48 48 49
68 69 56 57 54 51 44 45 47 41 35 31 33 34 32 31 29 27 27 27 28 29 29 29 29 29 29 30 30 29 29 29 28 30 34 38 41 44 44 39 39 35 33 38 39 41 50 47 49
75 72 71 62 57 51 52 52 47 45 38 38 40 39 38 37 35 34 34 32 32 33 33 34 33 33 33 33 32 32 31 30 31 33 36 39 44 46 42 40 40 38 37 38 43 45 45 48 49
81 76 78 72 65 59 58 54 54 53 44 40 47 45 44 42 40 39 39 37 37 37 38 37 37 37 37 36 34 35 35 34 35 38 37 43 46 49 46 39 42 42 42 45 47 47 49 51 52
89 86 87 83 72 65 61 57 62 63 52 47 50 49 49 48 46 44 44 41 42 43 42 42 41 41 40 39 39 39 38 39 39 40 42 44 48 51 47 44 42 42 41 44 46 50 53 57 54
Wind_Direction
215 215 214 204 192 222 224 232 238 245 254 259 265 269 266 261 259 260 262 261 263 270 278 281 275 284 282 286 294 294 298 302 306 305 310 310 331 334 344 352 30 41 36 31 38 41 48 57 67
216 219 220 215 219 228 233 229 233 242 252 255 262 266 263 263 263 265 265 266 269 274 279 276 282 280 276 285 288 288 295 297 298 301 311 329 331 337 344 351 28 51 41 35 34 31 39 48 68
220 223 221 223 228 233 232 234 241 240 247 252 259 262 262 261 261 264 266 267 270 273 274 279 272 278 278 286 283 292 295 301 306 313 325 332 334 344 349 356 4 53 41 35 28 28 37 44 51
221 221 223 225 228 235 236 236 243 249 252 257 259 263 263 264 267 266 270 270 269 268 261 268 274 275 281 290 294 296 302 308 319 331 332 334 339 342 357 34 54 47 38 25 21 28 38 45 40
225 227 231 230 231 234 238 244 248 252 256 260 264 264 265 265 261 259 260 265 259 257 258 261 274 290 297 297 295 299 311 322 328 328 335 342 351 2 22 39 38 30 18 8 14 24 28 32 37
218 225 229 236 239 241 243 246 245 250 256 260 260 260 250 255 252 257 246 253 258 263 261 267 287 291 293 297 304 311 327 325 328 335 353 13 28 36 37 45 31 17 1 1 6 12 14 15 25
218 223 228 239 243 246 247 246 249 251 248 242 242 241 249 258 252 260 264 254 262 274 275 277 282 289 299 309 316 321 327 329 342 356 10 27 37 37 44 40 31 19 6 3 4 1 5 5 11
220 222 223 233 238 245 240 246 244 245 248 238 236 241 249 255 255 266 276 265 272 278 276 288 289 293 298 303 313 323 328 348 5 3 11 34 42 50 47 40 34 25 22 31 34 27 18 9 360
206 216 223 222 228 229 230 237 244 249 242 241 244 242 249 246 244 251 269 280 279 277 283 285 288 286 287 304 321 1 22 17 32 49 64 60 63 60 52 49 43 50 50 47 41 38 33 24 10
183 269 218 223 224 229 233 238 241 243 238 241 247 243 242 240 255 258 266 277 282 279 262 264 272 284 309 49 65 62 73 71 69 62 63 64 64 60 61 50 53 55 43 43 34 27 28 32 28
177 202 212 224 223 224 224 227 234 234 237 235 225 201 202 214 228 235 229 265 253 246 251 264 268 132 92 87 85 79 77 71 66 63 65 66 60 61 56 54 48 38 36 30 30 28 29 31 33
112 167 191 199 203 207 208 209 212 200 190 171 167 154 142 157 173 184 224 242 250 259 255 170 131 108 100 94 87 83 75 69 66 63 62 62 60 55 48 40 35 27 20 21 19 31 30 32 29
54 88 258 215 217 211 192 187 181 185 167 157 144 98 329 233 214 214 235 256 255 178 137 122 115 107 99 94 89 79 72 74 62 58 56 57 55 48 38 26 22 15 9 9 9 7 15 26 27
42 108 220 223 219 219 186 198 197 195 175 175 183 312 323 261 207 161 170 159 147 132 125 116 111 103 96 85 82 79 73 63 51 50 44 38 30 21 18 13 14 11 3 360 358 358 1 2 23
63 69 89 228 223 214 201 208 209 198 192 182 181 90 57 139 143 142 141 136 129 128 124 113 106 95 91 88 79 73 64 44 48 42 29 27 19 22 12 4 358 354 352 351 352 356 356 354 0
62 69 58 63 233 225 219 215 220 225 168 134 109 129 139 127 130 134 134 134 135 129 115 106 99 94 87 80 73 65 57 45 41 37 25 20 14 8 5 4 359 351 345 345 345 345 353 348 351
314 4 66 56 61 126 174 169 182 159 134 121 127 133 130 132 137 136 133 131 125 116 112 109 101 95 90 75 63 53 43 33 26 19 12 7 3 359 354 353 351 349 346 344 341 341 342 346 354
251 257 262 103 93 92 131 140 144 133 132 131 133 136 141 143 138 136 134 132 126 123 121 118 115 107 91 73 59 39 22 15 12 9 5 358 353 351 346 347 347 346 344 341 341 339 332 341 348
249 237 231 192 137 146 157 147 142 148 146 145 145 146 150 146 142 140 139 140 138 136 132 120 113 107 81 49 33 24 13 6 2 0 358 358 353 350 344 344 344 341 341 339 335 340 327 334 351
238 237 230 218 206 165 177 185 175 169 162 157 156 154 153 152 148 144 144 145 142 144 147 146 150 120 20 8 3 1 360 360 354 353 354 353 350 344 341 344 343 341 339 336 336 340 328 330 346
238 238 231 225 212 211 192 197 198 188 172 163 159 162 165 164 163 170 171 173 180 192 197 200 222 267 329 342 345 346 348 349 345 344 347 344 345 344 341 341 338 339 335 336 336 332 335 321 324
240 238 233 229 226 217 219 211 207 208 198 189 181 184 191 192 195 194 204 210 219 229 238 244 259 292 314 326 333 337 341 340 338 337 339 344 342 339 340 335 335 336 332 332 332 323 318 317 319
236 239 235 227 228 228 221 225 223 218 218 210 207 211 218 212 218 223 220 225 235 245 249 258 273 292 307 316 326 332 331 331 331 334 338 340 337 337 333 332 333 331 327 333 333 328 330 325 315
235 238 236 231 227 227 228 229 230 232 226 218 219 223 227 226 227 230 231 236 243 243 246 258 278 292 303 311 320 323 327 327 328 334 337 335 334 333 332 331 329 330 328 325 327 329 332 330 328
242 238 240 238 231 232 235 236 238 234 235 230 229 233 236 237 240 242 245 245 246 249 254 268 282 292 301 309 317 320 322 325 326 331 333 331 331 331 331 328 326 325 324 321 318 322 323 327 326
241 239 232 237 238 237 238 237 241 236 234 236 241 235 238 241 243 245 251 252 255 259 265 275 284 292 299 307 313 315 318 321 323 327 326 327 328 330 327 326 325 323 316 315 317 320 317 314 315
236 238 235 232 231 234 234 238 240 237 237 235 239 245 242 245 248 250 254 258 263 270 275 279 285 290 298 304 307 311 313 316 317 320 322 326 327 329 324 320 319 318 303 304 307 309 308 311 311
234 237 239 234 232 234 235 239 242 242 236 238 238 244 246 248 250 253 256 258 264 269 274 278 284 290 294 301 304 307 309 310 311 312 316 321 322 326 320 314 318 317 305 303 303 312 314 312 314
231 233 239 238 233 231 233 236 241 245 240 234 243 243 247 248 249 250 254 259 264 268 272 277 283 287 292 297 299 300 305 305 304 309 316 317 320 323 316 311 313 314 307 305 307 308 312 314 311
231 230 233 234 235 236 235 232 236 242 239 235 238 245 245 249 251 252 256 260 264 269 274 279 282 288 292 294 295 295 301 303 303 307 311 314 317 318 314 307 311 314 303 304 300 302 304 308 303
Height
10985 10989 10992 11000 11000 10997 10999 11001 11003 11005 11005 11006 11007 11008 11010 11012 11011 11009 11009 11009 11009 11008 11007 11005 11002 11001 10999 10997 10995 10993 10988 10985 10980 10977 10972 10968 10963 10960 10956 10953 10952 10949 10945 10941 10937 10934 10929 10927 10924
10982 10986 10990 10994 10995 10996 10997 10998 11000 11002 11002 11003 11004 11005 11005 11006 11005 11005 11004 11004 11004 11003 11002 11000 10999 10998 10995 10994 10992 10989 10986 10982 10978 10973 10968 10964 10961 10958 10954 10952 10951 10949 10945 10942 10939 10935 10931 10929 10927
10978 10982 10987 10989 10992 10993 10996 10997 10998 10999 11000 11001 11001 11001 11000 11001 11000 11000 10999 10998 10998 10998 10996 10996 10996 10994 10992 10990 10988 10985 10982 10978 10973 10969 10965 10961 10959 10956 10953 10951 10950 10948 10945 10943 10940 10937 10934 10931 10929
10976 10979 10982 10984 10987 10989 10992 10994 10994 10996 10996 10996 10996 10996 10996 10996 10996 10995 10995 10994 10994 10993 10993 10992 10991 10990 10988 10986 10983 10981 10978 10974 10970 10966 10962 10960 10958 10955 10953 10952 10950 10947 10946 10944 10942 10939 10937 10934 10932
10972 10975 10978 10981 10983 10985 10987 10989 10991 10991 10992 10992 10992 10992 10991 10991 10991 10991 10991 10991 10991 10991 10990 10989 10987 10986 10984 10982 10979 10977 10974 10971 10968 10964 10961 10958 10956 10954 10953 10951 10949 10948 10948 10945 10942 10941 10938 10935 10933
10969 10971 10974 10976 10978 10981 10983 10985 10987 10988 10988 10988 10989 10989 10988 10988 10988 10988 10988 10989 10989 10988 10987 10985 10984 10983 10981 10979 10976 10973 10971 10968 10966 10963 10960 10959 10956 10955 10953 10952 10951 10950 10948 10945 10943 10940 10938 10935 10933
10966 10968 10971 10974 10977 10979 10981 10982 10983 10984 10985 10985 10986 10986 10987 10986 10986 10986 10986 10986 10986 10985 10984 10983 10982 10980 10978 10975 10973 10971 10969 10967 10965 10963 10961 10960 10958 10957 10955 10953 10952 10950 10947 10944 10942 10939 10937 10934 10933
10963 10966 10969 10972 10975 10977 10979 10979 10980 10981 10981 10980 10982 10983 10984 10984 10984 10984 10984 10983 10982 10981 10981 10980 10978 10977 10975 10973 10971 10969 10967 10965 10964 10963 10962 10961 10959 10957 10955 10953 10951 10949 10946 10944 10941 10938 10936 10934 10933
10962 10966 10967 10968 10970 10973 10975 10976 10977 10977 10977 10977 10978 10980 10981 10981 10981 10981 10981 10980 10980 10979 10978 10977 10976 10974 10973 10971 10970 10968 10967 10965 10964 10963 10963 10962 10960 10957 10955 10953 10952 10950 10947 10945 10942 10940 10938 10935 10932
10964 10969 10965 10966 10968 10969 10971 10973 10974 10974 10975 10975 10975 10976 10977 10977 10978 10978 10979 10978 10976 10976 10976 10975 10974 10974 10972 10970 10969 10968 10968 10967 10966 10965 10964 10963 10962 10959 10957 10955 10954 10952 10950 10948 10945 10943 10939 10936 10932
10962 10964 10964 10966 10966 10968 10969 10969 10970 10971 10971 10972 10971 10972 10973 10974 10975 10976 10976 10975 10975 10975 10974 10974 10974 10973 10971 10970 10970 10970 10970 10970 10969 10967 10966 10965 10963 10962 10960 10958 10957 10955 10953 10949 10947 10945 10941 10937 10934
10963 10963 10964 10963 10965 10966 10966 10966 10968 10969 10970 10969 10970 10971 10970 10972 10973 10973 10974 10974 10974 10974 10973 10973 10972 10972 10972 10972 10973 10972 10972 10971 10971 10969 10968 10967 10965 10964 10962 10960 10959 10956 10954 10951 10950 10947 10943 10940 10937
10962 10963 10963 10963 10964 10965 10964 10965 10967 10968 10968 10969 10970 10971 10971 10971 10971 10972 10973 10973 10973 10973 10973 10973 10973 10973 10973 10974 10974 10974 10973 10973 10972 10972 10970 10969 10968 10965 10964 10962 10960 10957 10954 10952 10950 10947 10945 10942 10939
10963 10964 10963 10963 10964 10964 10964 10966 10967 10968 10967 10967 10968 10968 10969 10969 10970 10970 10972 10973 10973 10974 10975 10975 10975 10975 10975 10976 10976 10976 10975 10975 10974 10974 10973 10971 10969 10967 10964 10962 10960 10956 10955 10952 10949 10947 10944 10943 10939
10965 10964 10964 10963 10963 10964 10964 10965 10967 10967 10967 10966 10966 10967 10968 10969 10971 10971 10972 10974 10975 10976 10976 10976 10976 10976 10977 10977 10977 10978 10977 10977 10976 10975 10974 10971 10970 10966 10964 10961 10959 10957 10954 10951 10948 10946 10944 10942 10939
10968 10966 10965 10963 10962 10962 10963 10966 10966 10966 10966 10965 10965 10967 10969 10970 10973 10974 10975 10975 10976 10977 10977 10977 10977 10978 10979 10979 10979 10979 10979 10978 10978 10976 10974 10972 10969 10966 10964 10962 10960 10957 10954 10951 10949 10946 10944 10941 10937
10968 10968 10966 10964 10964 10962 10962 10971 10964 10966 10964 10963 10966 10968 10970 10972 10974 10975 10976 10977 10977 10978 10978 10978 10978 10979 10980 10980 10980 10980 10980 10979 10977 10976 10975 10973 10970 10967 10965 10963 10960 10957 10953 10949 10946 10943 10941 10939 10936
10967 10968 10967 10966 10967 10967 10965 10965 10965 10965 10965 10964 10967 10970 10972 10974 10975 10976 10977 10978 10978 10979 10979 10980 10980 10981 10981 10981 10981 10980 10980 10979 10979 10977 10975 10972 10970 10968 10964 10962 10958 10955 10952 10948 10946 10942 10938 10935 10932
10967 10967 10966 10966 10967 10968 10969 10967 10967 10966 10966 10966 10967 10970 10973 10975 10976 10977 10978 10979 10979 10980 10980 10981 10982 10982 10982 10981 10981 10981 10980 10979 10978 10976 10973 10971 10968 10965 10963 10960 10957 10954 10952 10948 10943 10939 10935 10932 10929
10963 10964 10965 10965 10966 10966 10969 10969 10968 10968 10967 10966 10968 10970 10973 10975 10977 10978 10979 10979 10979 10980 10981 10981 10981 10981 10982 10982 10981 10980 10979 10977 10976 10974 10971 10969 10966 10964 10962 10959 10955 10951 10947 10943 10940 10936 10932 10930 10926
10957 10959 10962 10963 10963 10965 10966 10967 10968 10968 10967 10967 10968 10970 10972 10974 10976 10977 10978 10978 10979 10980 10980 10980 10980 10980 10980 10980 10980 10978 10977 10975 10973 10971 10969 10966 10963 10961 10958 10955 10951 10947 10943 10939 10936 10932 10928 10925 10921
10950 10952 10955 10958 10960 10960 10964 10966 10966 10967 10968 10967 10968 10969 10971 10973 10974 10975 10976 10977 10978 10978 10979 10979 10979 10979 10979 10979 10978 10976 10975 10973 10971 10969 10966 10963 10960 10957 10954 10950 10946 10942 10938 10934 10930 10927 10924 10920 10917
10941 10940 10947 10951 10954 10956 10959 10962 10963 10964 10966 10967 10967 10968 10969 10970 10971 10972 10973 10974 10975 10975 10976 10977 10977 10977 10977 10976 10975 10973 10972 10970 10968 10965 10963 10960 10956 10953 10949 10944 10940 10935 10931 10928 10925 10922 10919 10915 10912
10925 10931 10938 10943 10947 10951 10954 10956 10957 10960 10962 10964 10965 10965 10965 10967 10967 10968 10970 10971 10971 10972 10973 10974 10974 10974 10973 10973 10972 10970 10968 10966 10964 10961 10959 10955 10951 10947 10941 10935 10931 10928 10924 10921 10917 10914 10910 10906 10904
10913 10923 10929 10935 10941 10946 10946 10949 10952 10953 10958 10960 10961 10961 10961 10962 10963 10965 10967 10967 10968 10968 10970 10970 10970 10970 10969 10968 10967 10966 10964 10962 10959 10957 10954 10950 10945 10939 10934 10929 10923 10920 10916 10913 10910 10906 10901 10898 10896
10898 10906 10920 10925 10930 10933 10936 10942 10945 10946 10950 10954 10955 10955 10956 10957 10960 10961 10962 10963 10963 10964 10965 10965 10964 10964 10965 10964 10963 10962 10960 10957 10955 10952 10948 10944 10939 10934 10929 10923 10919 10914 10910 10906 10903 10898 10894 10890 10888
10890 10889 10910 10909 10914 10918 10928 10929 10930 10937 10943 10947 10947 10948 10950 10952 10953 10955 10957 10958 10958 10958 10958 10958 10958 10959 10959 10960 10959 10957 10955 10952 10950 10946 10941 10937 10932 10928 10924 10919 10915 10911 10905 10900 10895 10892 10887 10882 10878
10870 10882 10884 10898 10905 10914 10915 10919 10924 10927 10934 10936 10936 10938 10941 10944 10947 10948 10949 10951 10951 10952 10952 10952 10952 10953 10953 10954 10953 10951 10949 10947 10944 10939 10936 10932 10926 10922 10916 10912 10908 10902 10896 10892 10886 10882 10878 10875 10869
10856 10867 10868 10881 10890 10899 10904 10911 10913 10915 10923 10928 10926 10929 10931 10935 10938 10940 10941 10943 10944 10945 10945 10945 10946 10947 10947 10947 10946 10944 10943 10941 10938 10932 10929 10923 10919 10914 10909 10906 10900 10894 10888 10881 10877 10873 10868 10864 10861
10833 10846 10845 10855 10876 10888 10893 10901 10898 10899 10911 10917 10918 10919 10923 10926 10929 10931 10932 10935 10935 10937 10938 10938 10938 10939 10940 10939 10938 10936 10935 10933 10930 10925 10920 10918 10913 10907 10903 10898 10894 10888 10880 10874 10869 10865 10862 10856 10851